Regional Weather Roundup
Issued by NWS Raleigh/Durham, NC

Home | Current Version | Previous Version | Text Only | Print | Product List | Glossary On
Versions: 1 2 3 4 5 6 7 8 9 10 11 12 13 14 15 16 17 18 19 20 21 22 23 24 25 26 27 28
000
ASUS42 KRAH 221710
RWRRAH
NORTH CAROLINA WEATHER ROUNDUP
NATIONAL WEATHER SERVICE RALEIGH NC
1200 PM EST SUN JAN 22 2017

NOTE: "FAIR" INDICATES FEW OR NO CLOUDS BELOW 12,000 FEET WITH NO
SIGNIFICANT WEATHER AND/OR OBSTRUCTIONS TO VISIBILITY.

NCZ001-053-055-056-065-067-221800-
WESTERN NORTH CAROLINA

CITY           SKY/WX    TMP DP  RH WIND       PRES   REMARKS
ASHEVILLE      CLOUDY    55  50  83 SE8       29.57F
JEFFERSON      FOG       49  49 100 SE3       29.59F VSB 1
HICKORY        FOG       54  54 100 CALM      29.59F VSB 1
RUTHERFORDTON  CLOUDY    56  56 100 CALM      29.57F
MOUNT AIRY     CLOUDY    54  51  92 NE3       29.61F FOG
BOONE          CLOUDY    51  51 100 SW6       29.60F
$$

NCZ021-022-025-041-071-084-088-221800-
CENTRAL NORTH CAROLINA

CITY           SKY/WX    TMP DP  RH WIND       PRES   REMARKS
CHARLOTTE      CLOUDY    59  54  83 NW3       29.59F
GREENSBORO     CLOUDY    53  53 100 NE6       29.58F
WINSTON-SALEM  CLOUDY    53  51  93 NE5       29.59F FOG
RALEIGH-DURHAM FOG       54  53  97 NE5       29.59R VSB 1/4
FORT BRAGG     CLOUDY    59  59 100 CALM      29.58S
FAYETTEVILLE   CLOUDY    63  59  87 W3        29.58F
BURLINGTON     CLOUDY    56  53  90 N3        29.59F
LAURINBURG     CLOUDY    61  59  93 S5        29.59F
$$

NCZ011-015-027-028-043-044-047-080-103-221800-
NORTHEASTERN NORTH CAROLINA

CITY           SKY/WX    TMP DP  RH WIND       PRES   REMARKS
ROCKY MT-WILSO CLOUDY    54  54 100 N6        29.59F
GREENVILLE     CLOUDY    57  55  94 E10       29.56F FOG
WASHINGTON     CLOUDY    60  56  87 CALM        N/A
ELIZABETH CITY CLOUDY    54  53  97 NW5       29.61F FOG
MANTEO         CLOUDY    56  56 100 W3        29.62F FOG
CAPE HATTERAS  LGT RAIN  60  57  89 W8        29.61F FOG
$$

NCZ078-087-090-091-093-098-101-221800-
SOUTHEASTERN NORTH CAROLINA

CITY           SKY/WX    TMP DP  RH WIND       PRES   REMARKS
LUMBERTON      CLOUDY    61  60  97 S5        29.58F
GOLDSBORO      CLOUDY    59  59 100 NW6       29.57F
KINSTON        CLOUDY    63  61  94 E8        29.55F
KENANSVILLE    NOT AVBL
NEW BERN       CLOUDY    62  59  90 SE6       29.59F
CHERRY POINT   CLOUDY    61  59  93 SE6       29.60F
BEAUFORT       RAIN      59  58  96 SE3       29.61F FOG
JACKSONVILLE   NOT AVBL
WILMINGTON     CLOUDY    61  60  97 W5        29.60R
$$





USA.gov is the U.S. government's official web portal to all federal, state and local government web resources and services.